DW9161 Weather Reports


time (UTC)temp
C
wind
direction
speed
KPH
gust
KPH
rain 1hr
cm
rain 24hr
cm
rain mn
cm
humidity
%
barometer
mb
20260507104048 7 225 4.8 11.3 0.00 0.00 0.00 75 1012.8
20260507103546 7 228 6.4 11.3 0.00 0.00 0.00 75 1012.8
20260507103046 7 231 4.8 8.0 0.00 0.00 0.00 75 1012.8
20260507102541 8 231 6.4 8.0 0.00 0.00 0.00 75 1012.7
20260507102058 8 231 4.8 8.0 0.00 0.00 0.00 75 1012.8
20260507101534 8 224 4.8 9.7 0.00 0.00 0.00 74 1012.8
20260507101051 8 224 4.8 9.7 0.00 0.00 0.00 74 1012.8
20260507100557 8 224 4.8 9.7 0.00 0.00 0.00 74 1012.8
20260507100035 8 223 4.8 9.7 0.00 0.00 0.00 74 1012.9
20260507095532 8 219 4.8 8.0 0.00 0.00 0.00 74 1013.0
20260507095048 8 219 4.8 9.7 0.00 0.00 0.00 73 1013.0
20260507094546 8 218 4.8 8.0 0.00 0.00 0.00 73 1013.1
20260507094048 8 218 4.8 8.0 0.00 0.00 0.00 73 1013.1
20260507093545 8 214 4.8 6.4 0.00 0.00 0.00 72 1013.2
20260507093044 8 214 4.8 8.0 0.00 0.00 0.00 72 1013.2
20260507092541 8 213 4.8 8.0 0.00 0.00 0.00 72 1013.3
20260507092039 8 213 4.8 8.0 0.00 0.00 0.00 72 1013.3
20260507091556 8 212 4.8 8.0 0.00 0.00 0.00 71 1013.3
20260507091033 8 212 4.8 9.7 0.00 0.00 0.00 71 1013.4
20260507090600 8 212 4.8 9.7 0.00 0.00 0.00 70 1013.4
20260507090040 8 209 4.8 8.0 0.00 0.00 0.00 70 1013.5
20260507085538 8 207 4.8 6.4 0.00 0.00 0.00 69 1013.6
20260507085036 8 207 4.8 6.4 0.00 0.00 0.00 69 1013.6
20260507084553 8 207 3.2 8.0 0.00 0.00 0.00 68 1013.7
20260507084047 7 206 4.8 8.0 0.00 0.00 0.00 68 1013.7
20260507083546 7 205 3.2 6.4 0.00 0.00 0.00 67 1013.8
20260507083043 7 205 4.8 6.4 0.00 0.00 0.00 67 1013.8
20260507082603 7 203 3.2 4.8 0.00 0.00 0.00 66 1013.9
20260507082038 8 203 3.2 6.4 0.00 0.00 0.00 65 1013.9
20260507081537 8 203 3.2 6.4 0.00 0.00 0.00 64 1014.0
20260507081035 8 202 3.2 6.4 0.00 0.00 0.00 63 1014.0
20260507080600 8 202 3.2 6.4 0.00 0.00 0.00 62 1014.1
20260507080059 8 202 1.6 4.8 0.00 0.00 0.00 61 1014.1
20260507075539 8 202 1.6 4.8 0.00 0.00 0.00 61 1014.2
20260507075057 8 202 3.2 6.4 0.00 0.00 0.00 60 1014.2
20260507074533 8 201 4.8 6.4 0.00 0.00 0.00 59 1014.3
20260507074048 8 200 3.2 6.4 0.00 0.00 0.00 59 1014.2
20260507073547 8 198 3.2 6.4 0.00 0.00 0.00 58 1014.3
20260507073042 8 197 3.2 4.8 0.00 0.00 0.00 57 1014.5
20260507072541 8 197 3.2 4.8 0.00 0.00 0.00 56 1014.5
20260507072038 8 197 3.2 4.8 0.00 0.00 0.00 56 1014.6
20260507071535 8 197 1.6 4.8 0.00 0.00 0.00 55 1014.6
20260507071033 8 197 3.2 4.8 0.00 0.00 0.00 55 1014.6
20260507070600 8 197 1.6 4.8 0.00 0.00 0.00 54 1014.7
20260507070059 8 197 1.6 4.8 0.00 0.00 0.00 54 1014.8
20260507065536 8 197 3.2 4.8 0.00 0.00 0.00 54 1014.9
20260507065034 8 196 3.2 6.4 0.00 0.00 0.00 53 1014.9
20260507064530 8 196 4.8 6.4 0.00 0.00 0.00 53 1015.1
20260507064047 8 181 3.2 6.4 0.00 0.00 0.00 52 1015.1
20260507063545 8 178 3.2 6.4 0.00 0.00 0.00 52 1015.1
20260507063044 8 177 3.2 4.8 0.00 0.00 0.00 51 1015.1
20260507062603 8 176 1.6 4.8 0.00 0.00 0.00 51 1015.2
20260507062040 8 176 3.2 4.8 0.00 0.00 0.00 50 1015.2
20260507061542 8 176 3.2 6.4 0.00 0.00 0.00 50 1015.2
20260507061039 8 174 3.2 6.4 0.00 0.00 0.00 48 1015.2
20260507060607 8 265 3.2 4.8 0.00 0.00 0.00 48 1015.4
20260507060046 8 265 3.2 3.2 0.00 0.00 0.00 48 1015.4
20260507055543 8 265 1.6 4.8 0.00 0.00 0.00 47 1015.5
20260507055041 8 265 1.6 4.8 0.00 0.00 0.00 47 1015.5
20260507054537 8 265 1.6 3.2 0.00 0.00 0.00 47 1015.4
20260507054035 8 265 1.6 3.2 0.00 0.00 0.00 47 1015.5
20260507053531 8 265 1.6 3.2 0.00 0.00 0.00 47 1015.3
20260507053050 8 265 0.0 3.2 0.00 0.00 0.00 48 1015.3
20260507052546 8 265 1.6 3.2 0.00 0.00 0.00 47 1015.4
20260507052044 8 265 0.0 3.2 0.00 0.00 0.00 46 1015.5
20260507051540 9 265 0.0 3.2 0.00 0.00 0.00 47 1015.5
20260507051057 9 265 1.6 3.2 0.00 0.00 0.00 46 1015.4
20260507050605 9 265 1.6 3.2 0.00 0.00 0.00 45 1015.5
20260507050043 9 265 0.0 1.6 0.00 0.00 0.00 45 1015.5
20260507045600 9 265 0.0 3.2 0.00 0.00 0.00 45 1015.4
20260507045036 9 265 1.6 3.2 0.00 0.00 0.00 44 1015.5
20260507044538 9 265 0.0 3.2 0.00 0.00 0.00 44 1015.6
20260507044035 9 265 1.6 3.2 0.00 0.00 0.00 44 1015.7
20260507043532 9 265 0.0 3.2 0.00 0.00 0.00 44 1015.7
20260507043048 9 265 1.6 3.2 0.00 0.00 0.00 44 1015.8
20260507042546 9 265 1.6 3.2 0.00 0.00 0.00 44 1015.7
20260507042044 10 265 1.6 3.2 0.00 0.00 0.00 43 1015.8
20260507041602 10 265 0.0 1.6 0.00 0.00 0.00 44 1015.8
20260507041036 10 265 1.6 3.2 0.00 0.00 0.00 43 1015.8
20260507040605 10 265 1.6 3.2 0.00 0.00 0.00 44 1015.9
20260507040035 10 265 0.0 0.0 0.00 0.00 0.00 43 1015.9
20260507035532 10 265 0.0 0.0 0.00 0.00 0.00 43 1015.9
20260507035049 10 265 0.0 0.0 0.00 0.00 0.00 43 1016.0
20260507034542 9 265 0.0 1.6 0.00 0.00 0.00 44 1016.0
20260507033547 9 265 0.0 1.6 0.00 0.00 0.00 46 1016.0
20260507033044 9 265 0.0 1.6 0.00 0.00 0.00 45 1016.1
20260507032600 10 265 0.0 1.6 0.00 0.00 0.00 45 1016.1
20260507032035 10 265 0.0 1.6 0.00 0.00 0.00 44 1016.1
20260507031551 10 265 0.0 3.2 0.00 0.00 0.00 44 1016.1
20260507031046 10 265 1.6 6.4 0.00 0.00 0.00 43 1016.1
20260507030554 10 265 1.6 6.4 0.00 0.00 0.00 43 1016.2
20260507030035 10 278 0.0 1.6 0.00 0.00 0.00 43 1016.2
20260507025550 10 278 0.0 1.6 0.00 0.00 0.00 38 1016.1
20260507025045 10 278 0.0 1.6 0.00 0.00 0.00 40 1016.1
20260507024540 10 278 0.0 0.0 0.00 0.00 0.00 41 1016.0
20260507023544 10 278 0.0 1.6 0.00 0.00 0.00 40 1016.0
20260507023037 10 278 0.0 1.6 0.00 0.00 0.00 43 1015.9
20260507022534 10 278 1.6 1.6 0.00 0.00 0.00 41 1015.9
20260507022048 11 277 1.6 1.6 0.00 0.00 0.00 42 1015.9
20260507021545 11 278 0.0 0.0 0.00 0.00 0.00 40 1015.9
20260507021041 11 277 0.0 0.0 0.00 0.00 0.00 40 1015.8
20260507020632 11 277 0.0 0.0 0.00 0.00 0.00 39 1015.8
20260507020045 11 277 0.0 0.0 0.00 0.00 0.00 39 1015.8
20260507015542 11 278 0.0 1.6 0.00 0.00 0.00 37 1015.8
20260507015038 11 277 0.0 1.6 0.00 0.00 0.00 36 1015.8
20260507014554 12 277 0.0 1.6 0.00 0.00 0.00 36 1015.8
20260507013532 12 277 0.0 1.6 0.00 0.00 0.00 35 1015.7
20260507013113 12 277 0.0 1.6 0.00 0.00 0.00 34 1015.8
20260507012548 13 277 0.0 1.6 0.00 0.00 0.00 33 1015.6
20260507012046 13 278 0.0 1.6 0.00 0.00 0.00 32 1015.6
20260507011548 13 278 0.0 1.6 0.00 0.00 0.00 32 1015.7
20260507010553 14 278 1.6 6.4 0.00 0.00 0.00 30 1015.7
20260507010053 14 277 3.2 6.4 0.00 0.00 0.00 30 1015.8
20260507005610 14 246 1.6 4.8 0.00 0.00 0.00 31 1015.7
20260507005047 14 245 3.2 8.0 0.00 0.00 0.00 30 1015.8
20260507004544 14 245 3.2 8.0 0.00 0.00 0.00 29 1015.8
20260507004105 15 241 3.2 8.0 0.00 0.00 0.00 29 1015.7
20260507003541 15 323 1.6 8.0 0.00 0.00 0.00 29 1015.8
20260507003040 15 282 4.8 9.7 0.00 0.00 0.00 29 1015.9
20260507002537 15 285 3.2 11.3 0.00 0.00 0.00 30 1015.8
20260507001545 15 267 3.2 9.7 0.00 0.00 0.00 30 1015.9
20260507001043 15 266 4.8 11.3 0.00 0.00 0.00 29 1016.0
20260507000551 15 255 4.8 11.3 0.00 0.00 0.00 28 1016.0
20260507000050 15 274 1.6 8.0 0.00 0.00 0.00 29 1016.0
20260506235546 15 276 1.6 11.3 0.00 0.00 0.00 30 1016.1
20260506235043 15 342 1.6 11.3 0.00 0.00 0.00 29 1016.1
20260506234541 15 314 1.6 9.7 0.00 0.00 0.00 31 1016.2
20260506234044 15 328 4.8 12.9 0.00 0.00 0.00 28 1016.3
20260506233543 15 277 8.0 16.1 0.00 0.00 0.00 29 1016.2
20260506233042 15 269 6.4 16.1 0.00 0.00 0.00 28 1016.2
20260506232559 15 288 3.2 9.7 0.00 0.00 0.00 29 1016.2
20260506232036 15 309 6.4 9.7 0.00 0.00 0.00 28 1016.3
20260506231536 15 256 3.2 12.9 0.00 0.00 0.00 29 1016.2
20260506231034 15 256 4.8 12.9 0.00 0.00 0.00 28 1016.3
20260506230604 15 344 4.8 9.7 0.00 0.00 0.00 29 1016.5
20260506230106 15 302 4.8 14.5 0.00 0.00 0.00 28 1016.5
20260506225606 15 277 4.8 17.7 0.00 0.00 0.00 28 1016.5
20260506225104 15 1 9.7 17.7 0.00 0.00 0.00 29 1016.5
20260506224542 15 297 6.4 14.5 0.00 0.00 0.00 28 1016.5
20260506224039 15 276 6.4 14.5 0.00 0.00 0.00 28 1016.6
20260506223537 15 236 4.8 17.7 0.00 0.00 0.00 29 1016.6
20260506223055 15 264 9.7 17.7 0.00 0.00 0.00 28 1016.7
20260506222551 15 273 8.0 17.7 0.00 0.00 0.00 29 1016.7
20260506222047 15 257 6.4 19.3 0.00 0.00 0.00 28 1016.7
20260506221545 15 295 6.4 19.3 0.00 0.00 0.00 30 1016.8
20260506221044 15 337 8.0 16.1 0.00 0.00 0.00 30 1016.8
20260506220613 15 283 4.8 16.1 0.00 0.00 0.00 30 1016.8
20260506220113 15 347 8.0 16.1 0.00 0.00 0.00 30 1016.8
20260506215548 15 306 8.0 16.1 0.00 0.00 0.00 31 1016.9
20260506215043 15 310 4.8 14.5 0.00 0.00 0.00 30 1017.0
20260506214542 15 291 6.4 16.1 0.00 0.00 0.00 29 1016.9
20260506214058 15 342 9.7 16.1 0.00 0.00 0.00 28 1017.0
20260506213555 15 348 8.0 16.1 0.00 0.00 0.00 29 1017.0
20260506213037 15 348 8.0 17.7 0.00 0.00 0.00 29 1017.0
20260506212535 15 349 4.8 12.9 0.00 0.00 0.00 30 1017.0
20260506212052 15 345 4.8 12.9 0.00 0.00 0.00 30 1017.0
20260506211610 15 336 9.7 14.5 0.00 0.00 0.00 31 1017.2
20260506211047 15 226 4.8 17.7 0.00 0.00 0.00 29 1017.2
20260506210556 15 323 6.4 17.7 0.00 0.00 0.00 29 1017.3
20260506210036 15 306 8.0 19.3 0.00 0.00 0.00 30 1017.3
20260506205550 15 353 9.7 19.3 0.00 0.00 0.00 33 1017.5
20260506205048 15 314 3.2 22.5 0.00 0.00 0.00 32 1017.5
20260506204547 15 350 4.8 20.9 0.00 0.00 0.00 34 1017.6
20260506204045 15 305 8.0 19.3 0.00 0.00 0.00 31 1017.6
20260506203544 15 321 9.7 17.7 0.00 0.00 0.00 30 1017.7
20260506203042 14 319 6.4 14.5 0.00 0.00 0.00 32 1017.9
20260506202535 14 266 4.8 16.1 0.00 0.00 0.00 32 1017.9
20260506202035 14 278 3.2 12.9 0.00 0.00 0.00 32 1018.0
20260506201532 13 335 9.7 12.9 0.00 0.00 0.00 32 1018.1
20260506201031 13 291 3.2 14.5 0.00 0.00 0.00 31 1018.0
20260506200600 14 248 6.4 20.9 0.00 0.00 0.00 31 1018.1
20260506200044 15 265 8.0 20.9 0.00 0.00 0.00 32 1018.1
20260506195541 14 309 8.0 20.9 0.00 0.00 0.00 32 1018.3
20260506195039 13 5 9.7 20.9 0.00 0.00 0.00 31 1018.3
20260506194537 14 260 6.4 19.3 0.00 0.00 0.00 32 1018.2
20260506194055 14 280 9.7 19.3 0.00 0.00 0.00 31 1018.2
20260506193531 15 266 6.4 22.5 0.00 0.00 0.00 33 1018.2
20260506193048 14 339 8.0 22.5 0.00 0.00 0.00 31 1018.3
20260506192546 14 334 8.0 22.5 0.00 0.00 0.00 34 1018.3
20260506192044 13 335 6.4 12.9 0.00 0.00 0.00 32 1018.3
20260506191603 14 351 6.4 17.7 0.00 0.00 0.00 34 1018.3
20260506190556 14 343 9.7 17.7 0.00 0.00 0.00 33 1018.4
20260506190055 13 314 6.4 17.7 0.00 0.00 0.00 35 1018.3
20260506185553 13 287 8.0 14.5 0.00 0.00 0.00 34 1018.5
20260506185111 13 258 8.0 14.5 0.00 0.00 0.00 34 1018.5
20260506184609 13 342 6.4 14.5 0.00 0.00 0.00 35 1018.6
20260506184045 13 323 6.4 17.7 0.00 0.00 0.00 33 1018.7
20260506183543 13 259 8.0 16.1 0.00 0.00 0.00 34 1018.7
20260506183040 13 319 8.0 14.5 0.00 0.00 0.00 37 1018.7
20260506182538 13 311 6.4 17.7 0.00 0.00 0.00 38 1018.8
20260506182036 12 311 9.7 17.7 0.00 0.00 0.00 36 1018.9
20260506181554 12 317 6.4 12.9 0.00 0.00 0.00 37 1018.9
20260506181035 13 307 3.2 14.5 0.00 0.00 0.00 38 1018.9
20260506180604 13 279 6.4 14.5 0.00 0.00 0.00 37 1018.9
20260506180042 13 277 4.8 16.1 0.00 0.00 0.00 36 1018.9
20260506175538 13 356 1.6 16.1 0.00 0.00 0.00 38 1019.1
20260506175036 13 293 4.8 12.9 0.00 0.00 0.00 37 1019.1
20260506174533 12 305 6.4 12.9 0.00 0.00 0.00 36 1019.1
20260506174031 12 309 4.8 19.3 0.00 0.00 0.00 37 1019.3
20260506173550 12 278 8.0 19.3 0.00 0.00 0.00 36 1019.3
20260506173048 12 294 9.7 17.7 0.00 0.00 0.00 37 1019.5
20260506172544 12 306 8.0 12.9 0.00 0.00 0.00 37 1019.3
20260506172041 12 323 4.8 11.3 0.00 0.00 0.00 37 1019.5
20260506171538 12 325 4.8 12.9 0.00 0.00 0.00 37 1019.5
20260506171035 12 335 8.0 16.1 0.00 0.00 0.00 38 1019.6
20260506170604 12 266 8.0 22.5 0.00 0.00 0.00 36 1019.6
20260506170043 12 330 12.9 22.5 0.00 0.00 0.00 37 1019.6
20260506165541 11 276 4.8 20.9 0.00 0.00 0.00 39 1019.6
20260506165041 11 330 9.7 20.9 0.00 0.00 0.00 38 1019.7
20260506164539 11 338 4.8 14.5 0.00 0.00 0.00 38 1019.8
20260506164034 11 317 8.0 14.5 0.00 0.00 0.00 39 1019.8
20260506163532 11 269 6.4 16.1 0.00 0.00 0.00 38 1019.8
20260506163049 11 308 8.0 16.1 0.00 0.00 0.00 39 1019.8
20260506162546 11 311 4.8 12.9 0.00 0.00 0.00 41 1019.8
20260506162042 11 304 4.8 14.5 0.00 0.00 0.00 40 1019.7
20260506161540 11 267 8.0 16.1 0.00 0.00 0.00 40 1019.6
20260506161039 11 354 4.8 16.1 0.00 0.00 0.00 41 1019.7
20260506160607 11 345 8.0 16.1 0.00 0.00 0.00 41 1019.7
20260506160044 11 8 8.0 11.3 0.00 0.00 0.00 40 1019.7
20260506155539 10 309 3.2 16.1 0.00 0.00 0.00 41 1019.7
20260506154542 11 345 6.4 17.7 0.00 0.00 0.00 41 1019.6
20260506154037 11 263 6.4 17.7 0.00 0.00 0.00 42 1019.6
20260506153534 10 326 8.0 14.5 0.00 0.00 0.00 43 1019.6
20260506153034 10 335 8.0 19.3 0.00 0.00 0.00 40 1019.6
20260506152531 10 291 8.0 12.9 0.00 0.00 0.00 41 1019.6
20260506152047 11 340 6.4 12.9 0.00 0.00 0.00 43 1019.6
20260506151543 10 314 8.0 12.9 0.00 0.00 0.00 43 1019.5
20260506151101 10 298 6.4 12.9 0.00 0.00 0.00 45 1019.6
20260506150607 10 352 6.4 11.3 0.00 0.00 0.00 42 1019.6
20260506150045 10 262 6.4 11.3 0.00 0.00 0.00 42 1019.7
20260506145539 10 337 6.4 11.3 0.00 0.00 0.00 43 1019.7
20260506145036 10 288 4.8 8.0 0.00 0.00 0.00 43 1019.6
20260506144533 10 350 4.8 9.7 0.00 0.00 0.00 45 1019.6
20260506144049 10 348 4.8 12.9 0.00 0.00 0.00 46 1019.6
20260506143610 9 345 4.8 12.9 0.00 0.00 0.00 45 1019.6
20260506143044 9 321 3.2 9.7 0.00 0.00 0.00 47 1019.6
20260506142539 9 335 4.8 9.7 0.00 0.00 0.00 46 1019.5
20260506142034 9 301 4.8 8.0 0.00 0.00 0.00 47 1019.5
20260506141531 8 330 1.6 6.4 0.00 0.00 0.00 47 1019.5
20260506141047 8 337 3.2 8.0 0.00 0.00 0.00 46 1019.5
20260506140554 8 340 4.8 8.0 0.00 0.00 0.00 48 1019.5
20260506140030 8 320 3.2 8.0 0.00 0.00 0.00 52 1019.4
20260506135608 8 320 3.2 11.3 0.00 0.00 0.00 49 1019.3
20260506135107 8 313 3.2 6.4 0.00 0.00 0.00 51 1019.2
20260506134543 7 309 3.2 6.4 0.00 0.00 0.00 51 1019.3
20260506134042 7 326 3.2 8.0 0.00 0.00 0.00 54 1019.2
20260506133600 7 326 4.8 8.0 0.00 0.00 0.00 54 1019.2
20260506133039 7 326 4.8 8.0 0.00 0.00 0.00 56 1019.1
20260506132536 7 329 1.6 6.4 0.00 0.00 0.00 58 1019.0
20260506132033 6 329 3.2 8.0 0.00 0.00 0.00 57 1019.1
20260506131531 6 324 3.2 6.4 0.00 0.00 0.00 60 1019.0
20260506131049 6 323 1.6 4.8 0.00 0.00 0.00 62 1018.9
20260506130557 6 323 1.6 4.8 0.00 0.00 0.00 61 1018.9
20260506130035 5 328 1.6 4.8 0.00 0.00 0.00 63 1018.8
20260506125531 5 328 3.2 4.8 0.00 0.00 0.00 62 1018.9
20260506125029 5 328 1.6 3.2 0.00 0.00 0.00 63 1018.9
20260506124547 5 328 1.6 3.2 0.00 0.00 0.00 63 1018.7
20260506124046 4 328 1.6 3.2 0.00 0.00 0.00 65 1018.6
20260506123544 4 328 0.0 1.6 0.00 0.00 0.00 66 1018.5
20260506123043 3 328 0.0 1.6 0.00 0.00 0.00 69 1018.4
20260506122602 3 328 0.0 1.6 0.00 0.00 0.00 68 1018.3
20260506122040 3 328 0.0 0.0 0.00 0.00 0.00 67 1018.3
20260506121537 3 328 0.0 0.0 0.00 0.00 0.00 66 1018.2
20260506121038 3 328 0.0 0.0 0.00 0.00 0.00 67 1018.1
20260506120624 3 328 0.0 0.0 0.00 0.00 0.00 68 1018.1
20260506120047 3 328 0.0 0.0 0.00 0.00 0.00 67 1018.0
20260506115545 3 328 0.0 0.0 0.00 0.00 0.00 66 1017.9
20260506115105 3 328 0.0 0.0 0.00 0.00 0.00 66 1017.8
20260506114541 3 328 0.0 0.0 0.00 0.00 0.00 65 1017.8
20260506114100 3 328 0.0 0.0 0.00 0.00 0.00 64 1017.6
20260506113538 3 328 0.0 0.0 0.00 0.00 0.00 63 1017.8
20260506113035 3 328 0.0 1.6 0.00 0.00 0.00 63 1017.7
20260506112634 4 328 0.0 1.6 0.00 0.00 0.00 64 1017.6
20260506112046 4 328 0.0 1.6 0.00 0.00 0.00 63 1017.7
20260506111545 4 328 0.0 1.6 0.00 0.00 0.00 62 1017.6
20260506111042 4 328 0.0 1.6 0.00 0.00 0.00 61 1017.6
20260506110551 4 328 0.0 3.2 0.00 0.00 0.00 63 1017.4
20260506110031 4 328 1.6 4.8 0.00 0.00 0.00 63 1017.5
20260506105548 4 328 1.6 4.8 0.00 0.00 0.00 62 1017.5
20260506105044 4 328 0.0 3.2 0.00 0.00 0.00 63 1017.5
20260506104604 4 328 1.6 3.2 0.00 0.00 0.00 62 1017.5